[[{"header":{"parameterUnit":"m.s-1","parameterCategory":1,"la1":30.2991,"la2":30.254,"lo1":-89.0895,"lo2":-89.0444,"dy":0.0017,"dx":0.0017,"nx":28,"ny":28,"refTime":"2024-02-28T03:00:00:Z","depth":0,"parameterNumber":2,"parameterNumberName":"U-component_of_WINDS"},"data":[0,0,0,0,0,0,0,0,0,0,0,0,0,0,0,0,0,0,0,0,0,0,0,0,0,0,0,0,0,0,0,0,0,0,0,0,0,0,0,0,0,0,0,0,0,0,0,0,0,0,0,0,0,0,0,0,0,0,-4.3219,-4.3219,0,-4.3286,-4.3286,-4.3287,-4.3211,-4.3208,-4.3205,-4.3202,-4.3271,-4.3275,-4.328,0,0,0,0,0,0,0,0,0,0,0,0,0,-4.3024,-4.3028,-4.3219,-4.3219,-4.322,-4.3285,-4.3286,-4.3287,-4.3211,-4.3208,-4.3204,-4.3201,-4.3269,-4.3275,-4.328,0,0,0,0,0,0,0,0,0,0,0,0,0,-4.3102,-4.303,-4.3218,-4.319,-4.3188,-4.3285,-4.3286,-4.3288,-4.3212,-4.3208,-4.3203,-4.3199,-4.3268,-4.3274,-4.3281,-4.3409,0,0,-4.3302,-4.3304,0,0,0,0,0,0,0,0,-4.3098,-4.3109,-4.3194,-4.3192,-4.319,-4.3235,-4.3243,-4.3328,-4.3213,-4.3203,-4.3202,-4.3197,-4.3263,-4.3269,-4.3291,-4.3412,-4.3415,-4.3302,-4.3306,-4.3309,-4.3311,0,0,0,0,0,0,0,-4.3092,-4.3106,-4.3245,-4.3195,-4.3193,-4.3174,-4.318,-4.3259,-4.3256,-4.3204,-4.3198,-4.3207,-4.3261,-4.3285,-4.3293,-4.3416,-4.3302,-4.3308,-4.3312,-4.3315,-4.3645,-4.365,0,0,0,0,0,0,-4.309,-4.3102,-4.3243,-4.3247,-4.3132,-4.3181,-4.3188,-4.3225,-4.3255,-4.3256,-4.3211,-4.3203,-4.3276,-4.3285,-4.3295,-4.3447,-4.3309,-4.3315,-4.3319,-4.3641,-4.3646,-4.3651,0,0,0,0,0,0,-4.3086,-4.3104,-4.324,-4.3173,-4.3189,-4.3189,-4.3232,-4.3229,-4.3253,-4.3261,-4.326,-4.3236,-4.3273,-4.3285,-4.3381,-4.3448,-4.3318,-4.3325,-4.3635,-4.3642,-4.3649,-4.3753,0,0,0,0,0,0,-4.3081,-4.3103,-4.3151,-4.3175,-4.3193,-4.3326,-4.3236,-4.3233,-4.3265,-4.3256,-4.3284,-4.3285,-4.327,-4.3371,-4.3388,-4.3455,-4.333,-4.3629,-4.3638,-4.3647,-4.3744,-4.3763,-4.3779,0,0,0,0,0,-4.3074,-4.3178,-4.3154,-4.3172,-4.3254,-4.333,-4.334,-4.3322,-4.3271,-4.332,-4.3324,-4.3284,-4.3438,-4.3382,-4.34,-4.347,-4.3625,-4.3636,-4.3646,-4.3736,-4.3759,-4.3779,0,0,0,0,0,0,-4.3162,-4.318,-4.3154,-4.3268,-4.3298,-4.3317,-4.3378,-4.3347,-4.3392,-4.3382,-4.3356,-4.3364,-4.3466,-4.3477,-4.3414,-4.3596,-4.3523,-4.3538,-4.3585,-4.3607,-4.3625,-4.3621,-4.3335,0,0,0,0,0,-4.3195,-4.3256,-4.3268,-4.3367,-4.3384,-4.3379,-4.3411,-4.3394,-4.3424,-4.3436,-4.3448,-4.3479,-4.3534,-4.3571,-4.3622,-4.3744,-4.375,-4.3801,-4.3819,-4.3834,-4.3847,-4.3913,-4.3937,-4.3686,-4.3686,-4.3686,0,0,-4.3263,-4.3281,-4.332,-4.3385,-4.3407,-4.347,-4.339,-4.346,-4.3507,-4.3447,-4.3539,-4.3548,-4.3581,-4.3691,-4.3739,-4.3703,-4.3917,-4.3847,-4.3859,-4.3865,-4.3927,-4.395,-4.3972,-4.3694,-4.3692,-4.3691,0,0,-4.342,-4.3439,-4.3524,-4.3547,-4.358,-4.3576,-4.3597,-4.362,-4.3625,-4.3716,-4.3673,-4.3727,-4.3823,-4.3848,-4.3874,-4.404,-4.4004,-4.4057,-4.4151,-4.4215,-4.4235,-4.4252,-4.4313,-4.4335,-4.407,-4.407,-4.4071,0,-4.3501,-4.3595,-4.3572,-4.3646,-4.3676,-4.3624,-4.3711,-4.3734,-4.3782,-4.3804,-4.3763,-4.3882,-4.39,-4.4015,-4.4056,-4.4078,-4.4101,-4.4054,-4.4234,-4.4251,-4.4267,-4.4324,-4.4347,-4.4077,-4.4076,-4.4075,-4.4075,0,-4.3693,-4.3759,-4.3823,-4.3872,-4.3909,-4.3989,-4.3978,-4.4018,-4.3998,-4.3998,-4.4092,-4.4112,-4.4167,-4.4192,-4.4173,-4.4305,-4.4282,-4.4238,-4.4164,-4.4298,-4.4351,-4.4373,-4.4086,-4.4083,-4.4082,-4.408,0,0,-4.3908,-4.3943,-4.3967,-4.3989,-4.4021,-4.4071,-4.4149,-4.4202,-4.4238,-4.4272,-4.4337,-4.4419,-4.4378,-4.4407,-4.439,-4.4446,-4.4578,-4.4395,-4.4395,-4.4429,-4.4726,-4.476,-4.4786,-4.4554,-4.4558,-4.4561,-4.4723,0,-4.4067,-4.4201,-4.4183,-4.4312,-4.4373,-4.4324,-4.4391,-4.4419,-4.4421,-4.4473,-4.4474,-4.4534,-4.4475,-4.4492,-4.4546,-4.4551,-4.4637,-4.4538,-4.4614,-4.4617,-4.4609,-4.4813,-4.485,-4.5002,-4.4744,-4.4748,-4.475,0,-4.427,-4.4312,-4.4448,-4.4471,-4.4496,-4.4557,-4.4605,-4.4654,-4.4684,-4.4682,-4.4714,-4.4687,-4.4764,-4.4688,-4.4794,-4.4728,-4.4757,-4.4764,-4.477,-4.4777,-4.4693,-4.4828,-4.505,-4.5073,-4.4782,-4.478,-4.4778,0,-4.4415,-4.4506,-4.4599,-4.4618,-4.4648,-4.4692,-4.4706,-4.4731,-4.4765,-4.4806,-4.4828,-4.4878,-4.4905,-4.4944,-4.4931,-4.4877,-4.5041,-4.4964,-4.5041,-4.5042,-4.5079,-4.5077,-4.5311,-4.5097,-4.5096,-4.5096,-4.5095,0,-4.4595,-4.468,-4.4664,-4.4722,-4.4816,-4.4793,-4.4887,-4.4895,-4.4918,-4.4976,-4.4936,-4.4992,-4.497,-4.5024,-4.5014,-4.5104,-4.5117,-4.5117,-4.5114,-4.5122,-4.5122,-4.5142,-4.5131,-4.5102,-4.51,-4.5099,-4.5098,0,-4.4773,-4.4766,-4.4865,-4.4884,-4.4891,-4.496,-4.4976,-4.503,-4.5029,-4.5103,-4.5119,-4.5117,-4.5178,-4.5169,-4.5237,-4.523,-4.5343,-4.5326,-4.5333,-4.533,-4.5408,-4.5402,-4.5664,-4.5698,-4.546,-4.5463,-4.5465,0,-4.4889,-4.4953,-4.498,-4.5016,-4.5034,-4.5092,-4.5126,-4.5107,-4.5144,-4.5182,-4.5232,-4.5289,-4.5335,-4.5435,-4.544,-4.5492,-4.5476,-4.5565,-4.5484,-4.549,-4.5479,-4.5476,-4.5483,-4.5581,-4.5584,-4.5586,-4.5588,0,-4.5096,-4.5089,-4.514,-4.519,-4.5232,-4.527,-4.5304,-4.5336,-4.5319,-4.5362,-4.5425,-4.546,-4.553,-4.5588,-4.5636,-4.565,-4.5617,-4.5613,-4.5634,-4.5643,-4.5646,-4.5646,-4.5378,-4.5607,-4.5606,-4.5604,-4.5603,-4.5602,-4.5247,-4.5303,-4.533,-4.5388,-4.5412,-4.5445,-4.5496,-4.5501,-4.5553,-4.5609,-4.5593,-4.5665,-4.5692,-4.5754,-4.5773,-4.5829,-4.5796,-4.5826,-4.5834,-4.5842,-4.5852,-4.5636,-4.5837,-4.5836,-4.5836,-4.5835,-4.5835,0,-4.5453,-4.5468,-4.5522,-4.5571,-4.5617,-4.5581,-4.5616,-4.5657,-4.572,-4.5749,-4.5794,-4.5866,-4.5922,-4.5931,-4.5985,-4.6027,-4.6013,-4.6042,-4.6039,-4.6043,-4.5878,-4.5855,-4.6052,-4.6052,-4.6052,-4.6052,-4.6052,-4.6052,-4.5566,-4.5657,-4.5654,-4.5757,-4.5771,-4.5841,-4.5865,-4.5895,-4.5918,-4.6,-4.6047,-4.6052,-4.6073,-4.6127,-4.6177,-4.6178,-4.62,-4.6235,-4.6231,-4.6076,-4.6055,-4.6034,-4.6012,-4.624,-4.624,-4.6391,-4.6393,-4.6394]},{"header":{"parameterUnit":"m.s-1","parameterCategory":1,"la1":30.2991,"la2":30.254,"lo1":-89.0895,"lo2":-89.0444,"dy":0.0017,"dx":0.0017,"nx":28,"ny":28,"refTime":"2024-02-28T03:00:00:Z","depth":0,"parameterNumber":3,"parameterNumberName":"V-component_of_WINDS"},"data":[0,0,0,0,0,0,0,0,0,0,0,0,0,0,0,0,0,0,0,0,0,0,0,0,0,0,0,0,0,0,0,0,0,0,0,0,0,0,0,0,0,0,0,0,0,0,0,0,0,0,0,0,0,0,0,0,0,0,-8.138,-8.138,0,-8.1457,-8.1458,-8.1459,-8.1353,-8.1349,-8.1345,-8.1342,-8.1416,-8.1421,-8.1427,0,0,0,0,0,0,0,0,0,0,0,0,0,-8.1134,-8.1139,-8.138,-8.1381,-8.1382,-8.1457,-8.1458,-8.1459,-8.1354,-8.1349,-8.1344,-8.134,-8.1414,-8.1421,-8.1427,0,0,0,0,0,0,0,0,0,0,0,0,0,-8.1229,-8.1141,-8.1379,-8.1338,-8.1335,-8.1457,-8.1458,-8.1459,-8.1354,-8.1349,-8.1343,-8.1338,-8.1412,-8.142,-8.1428,-8.1592,0,0,-8.1453,-8.1457,0,0,0,0,0,0,0,0,-8.1224,-8.1238,-8.1343,-8.1341,-8.1338,-8.139,-8.1399,-8.1504,-8.1356,-8.1347,-8.1342,-8.1335,-8.1411,-8.1419,-8.1446,-8.1596,-8.1599,-8.1454,-8.1459,-8.1463,-8.1465,0,0,0,0,0,0,0,-8.1217,-8.1234,-8.141,-8.1345,-8.1342,-8.1314,-8.1321,-8.1418,-8.141,-8.1347,-8.134,-8.1351,-8.1409,-8.1439,-8.1447,-8.16,-8.1454,-8.1461,-8.1466,-8.1469,-8.1887,-8.1893,0,0,0,0,0,0,-8.1216,-8.1229,-8.1408,-8.1412,-8.1266,-8.1323,-8.1331,-8.1379,-8.1409,-8.1408,-8.1356,-8.1346,-8.1427,-8.1438,-8.1449,-8.1643,-8.1462,-8.147,-8.1475,-8.1881,-8.1889,-8.1895,0,0,0,0,0,0,-8.1212,-8.1233,-8.1404,-8.1319,-8.1339,-8.1333,-8.1388,-8.1383,-8.1413,-8.1415,-8.1412,-8.1388,-8.1423,-8.1438,-8.1558,-8.1645,-8.1474,-8.1481,-8.1874,-8.1884,-8.1892,-8.2034,0,0,0,0,0,0,-8.1205,-8.1232,-8.1296,-8.1321,-8.1344,-8.1514,-8.1393,-8.1389,-8.1428,-8.1416,-8.1444,-8.1444,-8.142,-8.1546,-8.1566,-8.1653,-8.1488,-8.1866,-8.1878,-8.1889,-8.2021,-8.2046,-8.2068,0,0,0,0,0,-8.1197,-8.1332,-8.13,-8.1322,-8.1424,-8.1519,-8.1532,-8.1503,-8.1435,-8.1499,-8.15,-8.1443,-8.1632,-8.1559,-8.1581,-8.1671,-8.1861,-8.1875,-8.1888,-8.2011,-8.2042,-8.2068,0,0,0,0,0,0,-8.1315,-8.1334,-8.1299,-8.1447,-8.1483,-8.1501,-8.158,-8.1537,-8.1591,-8.1577,-8.1537,-8.1545,-8.1673,-8.1684,-8.1603,-8.1831,-8.1735,-8.1754,-8.182,-8.185,-8.1873,-8.1868,-8.1495,0,0,0,0,0,-8.1359,-8.1437,-8.1448,-8.1577,-8.1597,-8.1586,-8.1626,-8.1601,-8.1636,-8.165,-8.1659,-8.1694,-8.176,-8.1805,-8.1867,-8.2022,-8.2026,-8.2095,-8.2118,-8.2137,-8.2154,-8.2236,-8.2267,-8.1941,-8.1941,-8.1941,0,0,-8.1449,-8.1469,-8.152,-8.1602,-8.1626,-8.1706,-8.1599,-8.1688,-8.1746,-8.1662,-8.1777,-8.1786,-8.1821,-8.1959,-8.202,-8.1972,-8.2245,-8.2155,-8.2171,-8.2177,-8.2254,-8.2285,-8.2312,-8.195,-8.1949,-8.1947,0,0,-8.1654,-8.1678,-8.1788,-8.1815,-8.1855,-8.1846,-8.1873,-8.1898,-8.1901,-8.2016,-8.1955,-8.2022,-8.2139,-8.2166,-8.2196,-8.2412,-8.2361,-8.2432,-8.2556,-8.2636,-8.2662,-8.2684,-8.2761,-8.2789,-8.2449,-8.2449,-8.245,0,-8.1761,-8.1881,-8.185,-8.1944,-8.1981,-8.191,-8.202,-8.2047,-8.2104,-8.2131,-8.2076,-8.2221,-8.2239,-8.2383,-8.2436,-8.2462,-8.249,-8.2429,-8.2661,-8.2683,-8.2704,-8.2777,-8.2806,-8.2458,-8.2457,-8.2456,-8.2455,0,-8.201,-8.2095,-8.2178,-8.2237,-8.2284,-8.2385,-8.2367,-8.2418,-8.2388,-8.2385,-8.2502,-8.2522,-8.2587,-8.2619,-8.259,-8.2758,-8.2727,-8.2668,-8.2569,-8.2744,-8.2812,-8.2839,-8.247,-8.2467,-8.2464,-8.2462,0,0,-8.2293,-8.2334,-8.2365,-8.2391,-8.2429,-8.2492,-8.259,-8.2655,-8.2699,-8.2739,-8.282,-8.292,-8.2865,-8.2898,-8.2872,-8.2943,-8.3112,-8.2874,-8.2874,-8.2918,-8.3298,-8.3343,-8.3376,-8.3079,-8.3084,-8.3088,-8.3295,0,-8.2499,-8.2671,-8.2645,-8.2809,-8.2886,-8.282,-8.2904,-8.2936,-8.2935,-8.2999,-8.2996,-8.3069,-8.2991,-8.301,-8.3077,-8.3078,-8.3188,-8.3062,-8.3152,-8.3155,-8.3146,-8.3412,-8.346,-8.3655,-8.3322,-8.3326,-8.3329,0,-8.2762,-8.2815,-8.2989,-8.3015,-8.3046,-8.3123,-8.318,-8.3242,-8.3275,-8.327,-8.3308,-8.3268,-8.3364,-8.3264,-8.3395,-8.331,-8.3344,-8.335,-8.3357,-8.3364,-8.3254,-8.3427,-8.3716,-8.3746,-8.3371,-8.3367,-8.3364,0,-8.2952,-8.3066,-8.3184,-8.3208,-8.3242,-8.3297,-8.3313,-8.3341,-8.3382,-8.3431,-8.3457,-8.3516,-8.3548,-8.3594,-8.3571,-8.3501,-8.3706,-8.3604,-8.3703,-8.3704,-8.3749,-8.3747,-8.4049,-8.3771,-8.3771,-8.377,-8.377,0,-8.3184,-8.3293,-8.327,-8.3343,-8.3462,-8.343,-8.3548,-8.3555,-8.3581,-8.3653,-8.3598,-8.3666,-8.3631,-8.3696,-8.3679,-8.3789,-8.3804,-8.3801,-8.3795,-8.3807,-8.3807,-8.3829,-8.3815,-8.3778,-8.3776,-8.3775,-8.3774,0,-8.3417,-8.3406,-8.353,-8.3552,-8.356,-8.3647,-8.3664,-8.3731,-8.3726,-8.3818,-8.3837,-8.3829,-8.3903,-8.3884,-8.3964,-8.3952,-8.4092,-8.4068,-8.4081,-8.4076,-8.4176,-8.4167,-8.4502,-8.4545,-8.424,-8.4243,-8.4245,0,-8.3566,-8.3648,-8.368,-8.3725,-8.3746,-8.3819,-8.386,-8.3831,-8.3877,-8.3921,-8.3983,-8.4052,-8.4106,-8.4226,-8.4226,-8.4286,-8.4264,-8.4378,-8.4273,-8.4282,-8.4266,-8.4262,-8.427,-8.4399,-8.4402,-8.4405,-8.4407,0,-8.3833,-8.3824,-8.3887,-8.3949,-8.4001,-8.4047,-8.4088,-8.4128,-8.4102,-8.4155,-8.4231,-8.4273,-8.4355,-8.4424,-8.4479,-8.4493,-8.4446,-8.444,-8.4466,-8.4479,-8.4484,-8.4483,-8.4139,-8.4433,-8.443,-8.4429,-8.4427,-8.4426,-8.4028,-8.4099,-8.4132,-8.4204,-8.4232,-8.4272,-8.4337,-8.434,-8.4404,-8.447,-8.4448,-8.4534,-8.4564,-8.4634,-8.4655,-8.4721,-8.4678,-8.4715,-8.4725,-8.4735,-8.4748,-8.4473,-8.4731,-8.473,-8.4729,-8.4728,-8.4728,0,-8.4293,-8.4311,-8.4378,-8.4438,-8.4495,-8.4447,-8.449,-8.454,-8.4617,-8.465,-8.4705,-8.4791,-8.4858,-8.4863,-8.4925,-8.4977,-8.4957,-8.4994,-8.499,-8.4994,-8.4783,-8.4754,-8.5009,-8.5009,-8.5009,-8.5009,-8.5009,-8.5009,-8.4437,-8.4553,-8.4548,-8.4677,-8.4693,-8.4779,-8.4808,-8.4843,-8.487,-8.497,-8.5026,-8.5029,-8.5051,-8.5114,-8.5172,-8.5171,-8.5197,-8.5243,-8.5234,-8.5037,-8.5009,-8.4982,-8.4955,-8.5249,-8.5249,-8.544,-8.5442,-8.5443]}]]